QPF
0.03 0.05 0.06 0.07 0.10 0.11 0.11 0.12 0.12 0.12 0.12 0.11 0.12 0.11 0.09 0.08 0.09 0.07 0.06 0.06 0.06 0.04 0.04 0.04 0.03 0.03 0.03 0.03 0.02 0.02 0.02 0.01 0.01 0.02 0.02 0.02 0.01 0.02 0.02 0.02 0.03 0.03 0.02
0.01 0.02 0.05 0.05 0.06 0.08 0.09 0.11 0.12 0.11 0.12 0.11 0.13 0.12 0.10 0.09 0.08 0.07 0.06 0.05 0.04 0.03 0.02 0.03 0.03 0.03 0.02 0.02 0.02 0.02 0.02 0.01 0.00 0.01 0.02 0.02 0.01 0.01 0.01 0.01 0.01 0.02 0.02
0.01 0.02 0.03 0.03 0.04 0.06 0.07 0.09 0.11 0.12 0.12 0.11 0.12 0.13 0.10 0.07 0.06 0.06 0.06 0.04 0.02 0.02 0.02 0.02 0.02 0.02 0.02 0.02 0.02 0.01 0.01 0.01 0.00 0.00 0.01 0.01 0.01 0.01 0.01 0.01 0.00 0.00 0.01
0.01 0.02 0.03 0.03 0.04 0.05 0.07 0.11 0.11 0.12 0.11 0.09 0.10 0.10 0.08 0.06 0.06 0.06 0.05 0.04 0.02 0.01 0.01 0.01 0.01 0.01 0.01 0.01 0.01 0.00 0.00 0.00 0.00 0.00 0.00 0.01 0.01 0.01 0.01 0.01 0.00 0.00 0.00
0.01 0.01 0.02 0.04 0.07 0.06 0.08 0.12 0.12 0.10 0.08 0.08 0.09 0.11 0.08 0.08 0.08 0.06 0.05 0.04 0.02 0.01 0.01 0.01 0.01 0.01 0.01 0.00 0.00 0.00 0.00 0.00 0.00 0.00 0.00 0.00 0.00 0.00 0.00 0.00 0.00 0.00 0.00
0.00 0.01 0.01 0.04 0.06 0.07 0.11 0.13 0.11 0.09 0.08 0.07 0.08 0.10 0.09 0.09 0.08 0.07 0.05 0.04 0.02 0.01 0.01 0.01 0.01 0.00 0.00 0.00 0.00 0.00 0.00 0.00 0.00 0.00 0.00 0.00 0.00 0.00 0.00 0.00 0.00 0.00 0.00
0.00 0.01 0.01 0.02 0.03 0.05 0.09 0.10 0.10 0.09 0.08 0.08 0.08 0.08 0.08 0.08 0.07 0.06 0.05 0.03 0.02 0.01 0.00 0.01 0.01 0.00 0.00 0.00 0.00 0.00 0.00 0.00 0.00 0.00 0.00 0.00 0.00 0.00 0.00 0.00 0.00 0.00 0.00
0.01 0.01 0.01 0.01 0.02 0.03 0.06 0.07 0.08 0.08 0.07 0.08 0.07 0.08 0.08 0.07 0.06 0.05 0.03 0.02 0.02 0.01 0.01 0.01 0.00 0.00 0.00 0.00 0.00 0.00 0.00 0.00 0.00 0.00 0.00 0.00 0.00 0.00 0.00 0.00 0.00 0.01 0.01
0.00 0.01 0.01 0.01 0.02 0.02 0.03 0.05 0.07 0.08 0.07 0.08 0.07 0.07 0.07 0.07 0.07 0.04 0.03 0.01 0.01 0.01 0.01 0.01 0.01 0.01 0.01 0.01 0.01 0.01 0.01 0.01 0.01 0.00 0.00 0.00 0.00 0.00 0.00 0.00 0.00 0.00 0.00
0.00 0.00 0.01 0.01 0.01 0.01 0.02 0.05 0.09 0.12 0.09 0.08 0.08 0.07 0.08 0.08 0.07 0.04 0.03 0.02 0.01 0.01 0.01 0.01 0.00 0.00 0.00 0.01 0.01 0.01 0.00 0.00 0.00 0.00 0.00 0.00 0.00 0.00 0.00 0.00 0.00 0.00 0.00
0.00 0.00 0.00 0.01 0.01 0.01 0.01 0.02 0.05 0.08 0.08 0.09 0.09 0.08 0.09 0.07 0.06 0.04 0.03 0.02 0.02 0.01 0.01 0.01 0.01 0.01 0.01 0.01 0.01 0.01 0.00 0.00 0.00 0.00 0.00 0.00 0.00 0.00 0.01 0.01 0.01 0.00 0.00
0.00 0.00 0.00 0.00 0.00 0.00 0.01 0.01 0.02 0.04 0.07 0.07 0.06 0.07 0.08 0.07 0.06 0.05 0.03 0.02 0.02 0.01 0.01 0.01 0.01 0.01 0.02 0.02 0.02 0.01 0.01 0.01 0.01 0.01 0.00 0.00 0.00 0.00 0.00 0.00 0.01 0.01 0.01
0.00 0.00 0.00 0.00 0.00 0.00 0.01 0.01 0.01 0.03 0.05 0.06 0.04 0.04 0.08 0.08 0.07 0.04 0.03 0.03 0.02 0.02 0.02 0.02 0.02 0.02 0.02 0.02 0.01 0.01 0.01 0.01 0.02 0.02 0.01 0.01 0.00 0.00 0.00 0.00 0.00 0.00 0.00
0.00 0.00 0.00 0.00 0.00 0.00 0.01 0.01 0.01 0.02 0.03 0.05 0.05 0.05 0.08 0.09 0.07 0.04 0.04 0.03 0.03 0.03 0.02 0.02 0.03 0.03 0.02 0.02 0.02 0.02 0.02 0.03 0.03 0.03 0.03 0.02 0.01 0.01 0.01 0.01 0.01 0.01 0.01
0.00 0.00 0.00 0.01 0.01 0.01 0.01 0.01 0.02 0.02 0.03 0.04 0.04 0.05 0.06 0.08 0.06 0.04 0.05 0.05 0.04 0.04 0.04 0.04 0.03 0.03 0.03 0.03 0.03 0.03 0.03 0.03 0.04 0.03 0.03 0.02 0.02 0.02 0.02 0.02 0.02 0.02 0.02
0.00 0.00 0.00 0.01 0.01 0.01 0.01 0.02 0.03 0.03 0.03 0.04 0.03 0.04 0.05 0.06 0.06 0.06 0.06 0.05 0.05 0.05 0.05 0.04 0.04 0.03 0.03 0.03 0.04 0.04 0.04 0.04 0.04 0.04 0.04 0.04 0.04 0.05 0.05 0.05 0.05 0.04 0.04
0.00 0.00 0.00 0.00 0.01 0.01 0.01 0.02 0.02 0.02 0.03 0.03 0.04 0.04 0.04 0.05 0.06 0.06 0.06 0.05 0.04 0.04 0.03 0.03 0.03 0.03 0.04 0.03 0.03 0.03 0.03 0.03 0.04 0.05 0.05 0.05 0.05 0.05 0.04 0.04 0.04 0.04 0.04
0.00 0.00 0.01 0.01 0.01 0.01 0.01 0.02 0.02 0.03 0.03 0.04 0.04 0.04 0.05 0.05 0.05 0.05 0.04 0.03 0.03 0.03 0.03 0.02 0.02 0.02 0.04 0.04 0.04 0.04 0.03 0.03 0.04 0.04 0.04 0.04 0.04 0.04 0.04 0.04 0.03 0.03 0.03
0.01 0.01 0.01 0.02 0.01 0.01 0.02 0.03 0.03 0.03 0.03 0.03 0.03 0.03 0.03 0.03 0.03 0.03 0.03 0.03 0.02 0.03 0.03 0.02 0.02 0.02 0.03 0.03 0.03 0.03 0.02 0.03 0.04 0.04 0.05 0.04 0.03 0.04 0.05 0.05 0.04 0.04 0.04
0.01 0.01 0.01 0.01 0.02 0.02 0.02 0.03 0.03 0.03 0.04 0.04 0.04 0.04 0.03 0.03 0.03 0.02 0.02 0.02 0.02 0.02 0.02 0.02 0.02 0.02 0.02 0.02 0.01 0.01 0.01 0.02 0.03 0.03 0.03 0.03 0.03 0.03 0.04 0.05 0.05 0.05 0.05
0.02 0.02 0.01 0.02 0.02 0.02 0.03 0.03 0.04 0.04 0.05 0.05 0.04 0.03 0.03 0.03 0.03 0.02 0.02 0.01 0.02 0.02 0.03 0.03 0.02 0.01 0.01 0.01 0.01 0.01 0.01 0.02 0.02 0.02 0.02 0.02 0.02 0.02 0.02 0.03 0.04 0.04 0.04
0.03 0.02 0.02 0.02 0.02 0.02 0.02 0.03 0.04 0.04 0.04 0.03 0.03 0.03 0.02 0.02 0.02 0.02 0.01 0.01 0.01 0.01 0.01 0.01 0.01 0.01 0.01 0.01 0.01 0.00 0.00 0.00 0.00 0.01 0.01 0.01 0.01 0.01 0.01 0.01 0.02 0.02 0.01
0.03 0.03 0.02 0.02 0.02 0.03 0.03 0.03 0.03 0.02 0.02 0.02 0.02 0.01 0.01 0.01 0.01 0.01 0.01 0.01 0.01 0.00 0.01 0.01 0.01 0.01 0.01 0.00 0.00 0.00 0.00 0.00 0.00 0.00 0.00 0.00 0.00 0.00 0.00 0.00 0.00 0.00 0.00
0.04 0.04 0.05 0.05 0.05 0.04 0.03 0.03 0.02 0.01 0.01 0.01 0.01 0.01 0.01 0.01 0.00 0.00 0.00 0.00 0.00 0.00 0.00 0.01 0.01 0.01 0.00 0.00 0.00 0.00 0.00 0.00 0.00 0.00 0.00 0.00 0.00 0.00 0.00 0.00 0.00 0.00 0.00
0.04 0.04 0.05 0.06 0.06 0.05 0.03 0.02 0.01 0.01 0.01 0.01 0.01 0.00 0.00 0.00 0.00 0.00 0.00 0.00 0.00 0.00 0.00 0.00 0.00 0.00 0.00 0.00 0.00 0.00 0.00 0.00 0.00 0.00 0.00 0.00 0.00 0.00 0.00 0.00 0.00 0.00 0.00
0.05 0.05 0.05 0.06 0.06 0.04 0.02 0.01 0.01 0.01 0.01 0.00 0.00 0.00 0.00 0.00 0.00 0.00 0.00 0.00 0.00 0.00 0.00 0.00 0.00 0.00 0.00 0.00 0.00 0.00 0.00 0.00 0.00 0.00 0.00 0.00 0.00 0.00 0.00 0.00 0.00 0.00 0.00
MSLP
1008.17 1008.36 1008.58 1008.83 1009.14 1009.54 1010.03 1010.61 1011.25 1011.94 1012.62 1013.26 1013.85 1014.36 1014.81 1015.20 1015.55 1015.88 1016.20 1016.50 1016.77 1017.00 1017.19 1017.31 1017.39 1017.44 1017.49 1017.56 1017.68 1017.87 1018.12 1018.41 1018.72 1019.00 1019.24 1019.40 1019.47 1019.46 1019.38 1019.26 1019.14 1019.05 1019.01
1008.01 1008.15 1008.29 1008.47 1008.72 1009.07 1009.54 1010.12 1010.82 1011.59 1012.38 1013.14 1013.84 1014.46 1014.97 1015.39 1015.75 1016.05 1016.33 1016.59 1016.83 1017.05 1017.23 1017.36 1017.44 1017.50 1017.54 1017.59 1017.67 1017.82 1018.02 1018.28 1018.57 1018.85 1019.10 1019.28 1019.37 1019.38 1019.30 1019.17 1019.02 1018.89 1018.81
1007.82 1007.92 1008.02 1008.14 1008.33 1008.62 1009.06 1009.65 1010.38 1011.22 1012.11 1012.99 1013.80 1014.51 1015.10 1015.56 1015.92 1016.21 1016.45 1016.68 1016.89 1017.09 1017.26 1017.41 1017.51 1017.58 1017.63 1017.66 1017.72 1017.83 1017.98 1018.19 1018.44 1018.71 1018.96 1019.15 1019.27 1019.31 1019.26 1019.15 1019.01 1018.87 1018.77
1007.60 1007.70 1007.78 1007.87 1008.01 1008.25 1008.65 1009.22 1009.97 1010.85 1011.81 1012.78 1013.69 1014.49 1015.14 1015.65 1016.02 1016.30 1016.52 1016.71 1016.90 1017.10 1017.29 1017.46 1017.60 1017.70 1017.77 1017.82 1017.87 1017.93 1018.05 1018.21 1018.42 1018.65 1018.88 1019.09 1019.24 1019.31 1019.30 1019.23 1019.11 1018.99 1018.88
1007.39 1007.52 1007.61 1007.68 1007.79 1007.99 1008.34 1008.88 1009.61 1010.51 1011.51 1012.54 1013.52 1014.38 1015.09 1015.63 1016.01 1016.29 1016.49 1016.67 1016.86 1017.06 1017.28 1017.49 1017.69 1017.85 1017.96 1018.04 1018.09 1018.15 1018.22 1018.34 1018.50 1018.70 1018.91 1019.11 1019.28 1019.39 1019.42 1019.39 1019.31 1019.20 1019.10
1007.21 1007.40 1007.53 1007.61 1007.70 1007.87 1008.17 1008.67 1009.36 1010.24 1011.24 1012.29 1013.30 1014.20 1014.94 1015.50 1015.90 1016.18 1016.38 1016.56 1016.75 1016.97 1017.22 1017.49 1017.75 1017.98 1018.16 1018.28 1018.35 1018.41 1018.46 1018.54 1018.66 1018.81 1019.00 1019.19 1019.36 1019.49 1019.56 1019.57 1019.52 1019.43 1019.33
1007.09 1007.35 1007.53 1007.65 1007.75 1007.90 1008.17 1008.61 1009.25 1010.08 1011.04 1012.07 1013.07 1013.97 1014.72 1015.30 1015.71 1015.98 1016.19 1016.37 1016.57 1016.82 1017.11 1017.44 1017.76 1018.06 1018.30 1018.47 1018.57 1018.64 1018.68 1018.73 1018.81 1018.92 1019.07 1019.24 1019.41 1019.55 1019.64 1019.67 1019.64 1019.57 1019.47
1007.02 1007.37 1007.63 1007.81 1007.93 1008.08 1008.32 1008.71 1009.29 1010.05 1010.95 1011.92 1012.89 1013.77 1014.50 1015.07 1015.47 1015.75 1015.96 1016.15 1016.36 1016.63 1016.95 1017.32 1017.69 1018.04 1018.32 1018.53 1018.67 1018.74 1018.78 1018.81 1018.85 1018.93 1019.04 1019.19 1019.33 1019.47 1019.56 1019.60 1019.59 1019.53 1019.43
1007.01 1007.45 1007.79 1008.03 1008.20 1008.36 1008.59 1008.94 1009.46 1010.15 1010.98 1011.88 1012.78 1013.61 1014.32 1014.87 1015.26 1015.54 1015.74 1015.93 1016.15 1016.42 1016.75 1017.13 1017.53 1017.89 1018.20 1018.43 1018.58 1018.66 1018.69 1018.70 1018.72 1018.77 1018.85 1018.97 1019.09 1019.21 1019.30 1019.35 1019.34 1019.28 1019.19
1007.03 1007.55 1007.97 1008.28 1008.50 1008.70 1008.93 1009.26 1009.74 1010.36 1011.12 1011.94 1012.77 1013.55 1014.21 1014.72 1015.10 1015.37 1015.57 1015.75 1015.96 1016.22 1016.54 1016.90 1017.28 1017.63 1017.93 1018.16 1018.30 1018.37 1018.39 1018.39 1018.40 1018.43 1018.49 1018.58 1018.69 1018.79 1018.88 1018.92 1018.92 1018.87 1018.78
1007.05 1007.62 1008.10 1008.48 1008.76 1009.00 1009.26 1009.59 1010.05 1010.63 1011.32 1012.08 1012.84 1013.55 1014.16 1014.65 1015.00 1015.25 1015.45 1015.62 1015.80 1016.04 1016.32 1016.64 1016.97 1017.28 1017.54 1017.73 1017.85 1017.91 1017.92 1017.92 1017.92 1017.95 1018.01 1018.09 1018.20 1018.29 1018.37 1018.41 1018.41 1018.37 1018.30
1007.02 1007.62 1008.14 1008.57 1008.91 1009.20 1009.50 1009.86 1010.31 1010.87 1011.52 1012.22 1012.92 1013.58 1014.14 1014.60 1014.93 1015.18 1015.36 1015.52 1015.69 1015.89 1016.13 1016.39 1016.65 1016.90 1017.10 1017.24 1017.33 1017.37 1017.38 1017.39 1017.41 1017.45 1017.53 1017.62 1017.73 1017.83 1017.91 1017.95 1017.96 1017.92 1017.87
1006.92 1007.52 1008.05 1008.51 1008.90 1009.25 1009.60 1009.99 1010.46 1011.02 1011.64 1012.30 1012.96 1013.57 1014.10 1014.53 1014.86 1015.10 1015.29 1015.45 1015.60 1015.78 1015.97 1016.18 1016.38 1016.56 1016.69 1016.79 1016.84 1016.87 1016.89 1016.91 1016.96 1017.04 1017.15 1017.28 1017.41 1017.52 1017.60 1017.65 1017.65 1017.63 1017.58
1006.73 1007.31 1007.84 1008.31 1008.73 1009.12 1009.52 1009.96 1010.46 1011.03 1011.64 1012.28 1012.91 1013.48 1013.99 1014.41 1014.73 1014.99 1015.19 1015.37 1015.53 1015.70 1015.87 1016.04 1016.19 1016.31 1016.40 1016.46 1016.49 1016.52 1016.55 1016.60 1016.70 1016.83 1016.98 1017.15 1017.31 1017.44 1017.52 1017.56 1017.56 1017.53 1017.48
1006.49 1007.02 1007.52 1007.99 1008.42 1008.85 1009.30 1009.79 1010.32 1010.90 1011.52 1012.14 1012.75 1013.31 1013.80 1014.21 1014.55 1014.83 1015.07 1015.28 1015.48 1015.67 1015.84 1016.00 1016.13 1016.22 1016.29 1016.32 1016.35 1016.38 1016.43 1016.53 1016.67 1016.84 1017.05 1017.25 1017.44 1017.58 1017.66 1017.69 1017.67 1017.62 1017.55
1006.25 1006.72 1007.18 1007.62 1008.06 1008.52 1009.00 1009.52 1010.09 1010.69 1011.31 1011.93 1012.52 1013.07 1013.55 1013.98 1014.34 1014.66 1014.95 1015.21 1015.46 1015.69 1015.90 1016.08 1016.22 1016.32 1016.38 1016.41 1016.44 1016.48 1016.57 1016.69 1016.87 1017.09 1017.32 1017.55 1017.75 1017.89 1017.97 1017.97 1017.91 1017.82 1017.72
1006.07 1006.49 1006.90 1007.31 1007.74 1008.21 1008.71 1009.26 1009.86 1010.48 1011.11 1011.72 1012.31 1012.84 1013.33 1013.77 1014.16 1014.52 1014.87 1015.20 1015.52 1015.82 1016.08 1016.31 1016.48 1016.60 1016.68 1016.73 1016.77 1016.83 1016.92 1017.06 1017.26 1017.49 1017.73 1017.97 1018.16 1018.28 1018.32 1018.28 1018.17 1018.03 1017.87
1006.05 1006.41 1006.77 1007.16 1007.58 1008.04 1008.56 1009.13 1009.74 1010.37 1011.01 1011.62 1012.20 1012.73 1013.22 1013.67 1014.09 1014.50 1014.90 1015.30 1015.69 1016.06 1016.40 1016.69 1016.91 1017.07 1017.18 1017.24 1017.29 1017.35 1017.44 1017.57 1017.75 1017.96 1018.18 1018.39 1018.54 1018.62 1018.61 1018.52 1018.36 1018.15 1017.93
1006.24 1006.56 1006.89 1007.25 1007.65 1008.11 1008.63 1009.21 1009.83 1010.47 1011.11 1011.72 1012.29 1012.82 1013.31 1013.77 1014.21 1014.65 1015.10 1015.56 1016.01 1016.45 1016.86 1017.20 1017.48 1017.68 1017.81 1017.89 1017.94 1017.98 1018.04 1018.14 1018.27 1018.42 1018.58 1018.72 1018.82 1018.84 1018.77 1018.61 1018.39 1018.12 1017.84
1006.68 1006.98 1007.28 1007.61 1008.00 1008.45 1008.97 1009.56 1010.18 1010.81 1011.45 1012.05 1012.61 1013.14 1013.62 1014.08 1014.54 1015.00 1015.48 1015.97 1016.47 1016.96 1017.42 1017.81 1018.13 1018.37 1018.52 1018.60 1018.64 1018.65 1018.66 1018.68 1018.74 1018.80 1018.88 1018.93 1018.94 1018.89 1018.75 1018.54 1018.27 1017.95 1017.62
1007.37 1007.65 1007.94 1008.26 1008.63 1009.07 1009.58 1010.15 1010.76 1011.39 1012.01 1012.60 1013.16 1013.66 1014.14 1014.59 1015.04 1015.51 1016.00 1016.51 1017.03 1017.55 1018.04 1018.46 1018.81 1019.07 1019.24 1019.31 1019.33 1019.29 1019.23 1019.17 1019.13 1019.09 1019.06 1019.01 1018.93 1018.80 1018.60 1018.35 1018.04 1017.69 1017.33
1008.26 1008.54 1008.82 1009.12 1009.47 1009.89 1010.38 1010.93 1011.53 1012.13 1012.73 1013.31 1013.84 1014.33 1014.78 1015.22 1015.65 1016.10 1016.58 1017.08 1017.61 1018.13 1018.63 1019.08 1019.45 1019.72 1019.89 1019.96 1019.94 1019.86 1019.73 1019.58 1019.43 1019.28 1019.14 1018.99 1018.82 1018.62 1018.38 1018.09 1017.76 1017.41 1017.04
1009.30 1009.58 1009.85 1010.13 1010.46 1010.85 1011.30 1011.82 1012.37 1012.95 1013.51 1014.05 1014.56 1015.02 1015.45 1015.85 1016.26 1016.68 1017.13 1017.62 1018.13 1018.64 1019.14 1019.59 1019.97 1020.25 1020.42 1020.48 1020.44 1020.32 1020.13 1019.90 1019.66 1019.41 1019.17 1018.93 1018.69 1018.43 1018.16 1017.86 1017.54 1017.19 1016.84
1010.41 1010.69 1010.94 1011.20 1011.50 1011.84 1012.25 1012.71 1013.21 1013.73 1014.25 1014.74 1015.21 1015.63 1016.02 1016.40 1016.77 1017.16 1017.58 1018.04 1018.53 1019.02 1019.51 1019.96 1020.34 1020.63 1020.81 1020.87 1020.82 1020.67 1020.43 1020.15 1019.83 1019.51 1019.18 1018.88 1018.58 1018.30 1018.01 1017.72 1017.42 1017.11 1016.78
1011.52 1011.80 1012.03 1012.26 1012.51 1012.80 1013.14 1013.53 1013.96 1014.41 1014.86 1015.30 1015.71 1016.09 1016.44 1016.78 1017.13 1017.49 1017.89 1018.32 1018.78 1019.26 1019.74 1020.19 1020.57 1020.87 1021.05 1021.12 1021.07 1020.91 1020.65 1020.33 1019.96 1019.59 1019.22 1018.87 1018.54 1018.25 1017.97 1017.71 1017.44 1017.16 1016.88
1012.58 1012.84 1013.05 1013.24 1013.44 1013.67 1013.93 1014.23 1014.58 1014.94 1015.32 1015.68 1016.04 1016.38 1016.70 1017.01 1017.34 1017.68 1018.06 1018.48 1018.92 1019.39 1019.86 1020.31 1020.69 1020.99 1021.19 1021.27 1021.22 1021.05 1020.79 1020.45 1020.07 1019.67 1019.28 1018.92 1018.59 1018.30 1018.04 1017.81 1017.59 1017.36 1017.12
Thickness
5759 5754 5748 5744 5740 5736 5733 5730 5728 5727 5727 5725 5725 5724 5724 5726 5727 5727 5727 5727 5727 5727 5726 5729 5726 5727 5729 5728 5727 5727 5725 5725 5725 5724 5723 5724 5726 5725 5723 5724 5723 5722 5721
5755 5750 5746 5742 5739 5735 5733 5730 5728 5727 5727 5726 5726 5725 5724 5724 5726 5726 5725 5725 5725 5725 5726 5726 5727 5727 5726 5726 5726 5725 5726 5726 5726 5725 5721 5719 5720 5721 5726 5724 5723 5723 5721
5756 5750 5746 5742 5739 5735 5732 5731 5728 5727 5726 5725 5724 5722 5721 5721 5722 5722 5723 5723 5723 5724 5725 5725 5726 5726 5728 5727 5725 5725 5724 5724 5725 5726 5723 5719 5717 5721 5724 5723 5723 5722 5722
5759 5752 5746 5742 5739 5736 5734 5731 5728 5726 5724 5724 5723 5722 5720 5720 5721 5722 5723 5722 5722 5722 5723 5723 5724 5725 5727 5725 5725 5726 5725 5723 5724 5723 5723 5722 5722 5720 5720 5723 5725 5723 5721
5761 5753 5748 5743 5740 5736 5733 5730 5727 5725 5724 5723 5723 5721 5721 5722 5722 5721 5720 5720 5721 5721 5721 5721 5722 5723 5725 5724 5724 5723 5723 5724 5724 5724 5723 5721 5720 5721 5718 5718 5721 5722 5723
5762 5755 5750 5744 5739 5735 5732 5728 5725 5723 5722 5722 5721 5720 5720 5720 5719 5718 5718 5719 5721 5721 5720 5721 5721 5721 5723 5722 5721 5721 5721 5722 5721 5722 5723 5721 5720 5720 5720 5717 5717 5719 5722
5763 5756 5749 5743 5738 5734 5731 5728 5724 5721 5721 5721 5720 5721 5719 5719 5718 5718 5718 5719 5721 5721 5720 5721 5719 5720 5719 5719 5719 5718 5719 5719 5717 5717 5719 5720 5720 5720 5719 5717 5717 5716 5720
5765 5758 5752 5745 5740 5735 5731 5728 5724 5722 5721 5721 5720 5720 5719 5719 5720 5720 5720 5720 5721 5722 5721 5719 5717 5717 5716 5717 5716 5718 5717 5716 5715 5716 5715 5716 5718 5717 5716 5715 5713 5712 5714
5767 5760 5754 5748 5742 5737 5733 5729 5725 5723 5723 5722 5721 5720 5720 5720 5721 5720 5719 5721 5720 5721 5719 5717 5716 5715 5714 5714 5714 5715 5713 5713 5713 5714 5712 5712 5715 5713 5713 5713 5712 5708 5705
5768 5762 5756 5751 5747 5741 5736 5732 5729 5726 5724 5723 5722 5721 5720 5720 5720 5719 5718 5719 5719 5718 5717 5716 5715 5714 5713 5712 5711 5711 5711 5709 5709 5709 5708 5707 5711 5710 5709 5709 5708 5707 5704
5771 5765 5759 5754 5750 5745 5739 5734 5731 5728 5725 5724 5723 5722 5721 5720 5718 5717 5717 5717 5717 5716 5715 5714 5713 5712 5711 5710 5709 5709 5708 5706 5706 5706 5705 5703 5703 5704 5705 5704 5703 5702 5700
5773 5767 5761 5755 5751 5746 5742 5737 5734 5731 5728 5726 5723 5721 5720 5718 5717 5716 5716 5716 5715 5715 5714 5713 5711 5710 5710 5709 5707 5706 5706 5704 5703 5702 5701 5700 5700 5698 5698 5698 5697 5697 5695
5771 5766 5761 5755 5751 5748 5744 5740 5737 5734 5731 5727 5723 5720 5719 5718 5716 5716 5715 5714 5713 5712 5712 5711 5709 5708 5708 5706 5705 5704 5702 5701 5700 5699 5697 5696 5694 5692 5692 5690 5691 5691 5691
5767 5764 5758 5754 5752 5749 5745 5742 5738 5736 5732 5728 5724 5720 5718 5717 5715 5714 5712 5711 5710 5709 5708 5708 5706 5705 5704 5703 5702 5700 5698 5697 5696 5694 5692 5691 5689 5687 5685 5684 5682 5682 5681
5763 5760 5756 5752 5749 5746 5744 5742 5739 5736 5733 5728 5724 5720 5718 5716 5714 5712 5710 5708 5707 5706 5705 5703 5702 5701 5700 5699 5697 5695 5694 5691 5689 5688 5686 5684 5681 5678 5676 5676 5675 5674 5672
5761 5758 5754 5749 5746 5743 5741 5739 5737 5735 5732 5727 5723 5720 5717 5714 5711 5708 5706 5704 5702 5701 5699 5697 5695 5693 5692 5688 5685 5684 5684 5682 5680 5677 5675 5674 5670 5668 5664 5662 5660 5659 5659
5760 5756 5752 5747 5744 5742 5739 5736 5733 5731 5727 5723 5720 5717 5714 5710 5707 5704 5701 5698 5696 5694 5692 5690 5687 5684 5679 5677 5675 5673 5674 5672 5669 5666 5664 5662 5659 5656 5655 5652 5649 5647 5644
5757 5753 5749 5744 5741 5739 5736 5733 5729 5725 5721 5717 5714 5711 5708 5704 5701 5698 5694 5691 5689 5686 5683 5680 5677 5673 5668 5665 5663 5662 5662 5660 5657 5653 5650 5647 5644 5641 5639 5639 5638 5636 5634
5751 5747 5744 5740 5737 5734 5731 5727 5722 5718 5713 5709 5706 5704 5701 5697 5693 5689 5686 5683 5679 5675 5672 5668 5665 5661 5655 5652 5651 5650 5651 5647 5644 5640 5636 5633 5630 5624 5622 5624 5624 5622 5621
5740 5737 5735 5732 5727 5724 5723 5718 5713 5708 5704 5701 5698 5695 5692 5688 5683 5679 5676 5672 5669 5664 5661 5655 5652 5648 5643 5637 5637 5636 5639 5635 5631 5627 5623 5616 5613 5609 5607 5608 5608 5607 5606
5727 5726 5724 5720 5716 5715 5712 5707 5702 5697 5694 5692 5688 5684 5681 5677 5673 5669 5665 5661 5657 5653 5648 5643 5639 5634 5629 5624 5621 5620 5622 5620 5618 5615 5612 5606 5597 5594 5592 5590 5591 5589 5586
5713 5713 5710 5706 5703 5701 5699 5693 5687 5684 5682 5679 5675 5672 5669 5666 5661 5657 5653 5649 5645 5640 5636 5631 5627 5623 5616 5610 5606 5604 5602 5600 5601 5598 5595 5589 5582 5579 5577 5576 5573 5571 5570
5699 5698 5695 5690 5687 5686 5684 5679 5674 5672 5669 5666 5662 5658 5655 5652 5649 5645 5641 5637 5633 5631 5627 5622 5617 5611 5605 5598 5592 5590 5587 5584 5583 5581 5574 5570 5566 5564 5565 5562 5559 5557 5561
5684 5683 5680 5676 5671 5669 5667 5665 5662 5660 5657 5653 5649 5645 5642 5639 5635 5633 5630 5626 5621 5618 5613 5608 5603 5599 5593 5586 5581 5578 5576 5571 5569 5566 5561 5556 5553 5551 5548 5548 5549 5547 5545
5668 5667 5664 5660 5656 5654 5652 5650 5648 5646 5644 5641 5638 5634 5631 5627 5621 5615 5609 5607 5599 5597 5595 5592 5588 5583 5577 5562 5555 5556 5555 5551 5548 5545 5549 5547 5544 5540 5537 5535 5532 5529 5526
5652 5650 5647 5645 5642 5640 5637 5635 5634 5632 5630 5628 5626 5623 5620 5614 5609 5603 5594 5582 5580 5575 5571 5567 5564 5558 5549 5543 5538 5535 5531 5529 5526 5528 5532 5529 5525 5521 5517 5514 5512 5509 5507